Главная страница
METAR-TAF:

METAR-TAF

Аэропорты :

Winchester Regional Airport

Винчестер, Виргиния, США

широта: 39-09N, долгота: 078-09W, высота над уровнем моря: 222 м

Текущие метеонаблюдения

Эта сводка был подготовлена 27 минут назад, в 20:15 UTC
Ветер 22 Узел от западно-северо-западный с порывами до 27 Узел
Температура 11°C
Влажность 50%
Давление 1006 hPa
Видимость: 16.1 км
Сплошная облачность на высоте 4900 фута

METAR: KOKV 172015Z AUTO 29022G27KT 10SM OVC049 11/01 A2972 RMK AO2

Время: 16:42 (20:42 UTC)


TAF: отсутствует

Метеонаблюдения и прогнозы для более 4000 аэропортов (сводки METAR и TAF).

Имеющиеся станции представлены на карте желтыми и красными точками.

Чтобы увидеть название станции, наведите на нее мышь.

Затем щелкните, чтобы увидеть метеонаблюдения и метеопрогнозы.

Управление картой: чтобы увеличить масштаб, щелкните зеленые кнопки с черным крестиком; чтобы уменьшить масштаб, щелкните зеленую кнопку с тире; для просмотра соседних карт щелкайте зеленые стрелки.


METAR-TAF: